San Jose, CA

9:33 AM PST on November 22, 2017 (GMT -0800)
San Jose International

Weather History for KSJC - July, 2013

Change the Weather History Date:

Wednesday, July 3, 2013

  Actual Average Record
Temperature  
Mean Temperature 77 °F 70 °F  
Max Temperature 91 °F 81 °F 103 °F (2001)
Min Temperature 62 °F 58 °F 42 °F (1895)
Degree Days  
Heating Degree Days 0 0  
Month to date heating degree days 0 0  
Since 1 June heating degree days 12 24  
Since 1 July heating degree days 0 0  
Cooling Degree Days 12 5  
Month to date cooling degree days 37 15  
Year to date cooling degree days 209 179  
Since 1 June cooling degree days 142 116  
Growing Degree Days 26 (Base 50)    
Moisture  
Dew Point 59 °F    
Average Humidity 61    
Maximum Humidity 90    
Minimum Humidity 31    
Precipitation  
Precipitation 0.00 in 0.00 in 0.14 in (1999)
Month to date precipitation 0.00 0.00  
Year to date precipitation 2.24 10.51  
Since 1 July precipitation 0.00  
Sea Level Pressure  
Sea Level Pressure 29.84 in    
Wind  
Wind Speed 6 mph (WNW)    
Max Wind Speed 18 mph    
Max Gust Speed 23 mph    
Visibility 10 miles    
Events      
T = Trace of Precipitation, MM = Missing Value Source: NWS Daily Summary

Daily Weather History Graph

Daily Weather History Graph

Search for Another Location

Airport or City:

Trip Planner

Search our weather history database for the weather conditions in past years. The results will help you decide how hot, cold, wet, or windy it might be!

Date:

Astronomy

Jul. 03, 2013 Rise Set
Actual Time 5:51 AM PDT 8:32 PM PDT
Civil Twilight 5:21 AM PDT 9:02 PM PDT
Nautical Twilight 4:42 AM PDT 9:41 PM PDT
Astronomical Twilight 3:59 AM PDT 10:24 PM PDT
Moon 2:30 AM PDT (7/3) 4:49 PM PDT (7/3)
Length of Visible Light 15h 41m
Length of Day
14h 40m
Waning Crescent, 17% of the Moon is Illuminated
Jul 3
Waning Crescent
Jul 8
New
Jul 15
First Quarter
Jul 22
Full
Jul 29
Last Quarter

Hourly Weather History & Observations

Time (PDT) Temp. Heat Index Dew Point Humidity Pressure Visibility Wind Dir Wind Speed Gust Speed Precip Events Conditions
12:53 AM 64.0 °F - 57.9 °F 80% 29.92 in 10.0 mi WNW 4.6 mph - N/A   Clear
1:53 AM 64.0 °F - 59.0 °F 84% 29.90 in 10.0 mi WSW 3.5 mph - N/A   Clear
2:53 AM 63.0 °F - 57.9 °F 84% 29.88 in 10.0 mi WNW 4.6 mph - N/A   Clear
3:53 AM 62.1 °F - 59.0 °F 90% 29.89 in 10.0 mi NW 6.9 mph - N/A   Clear
4:53 AM 62.1 °F - 57.9 °F 86% 29.89 in 10.0 mi NNW 4.6 mph - N/A   Scattered Clouds
5:01 AM 62.6 °F - 57.2 °F 82% 29.90 in 10.0 mi NNW 3.5 mph - N/A   Mostly Cloudy
5:25 AM 62.6 °F - 57.2 °F 82% 29.89 in 10.0 mi NW 3.5 mph - N/A   Partly Cloudy
5:53 AM 62.1 °F - 57.9 °F 86% 29.90 in 10.0 mi Calm Calm - N/A   Partly Cloudy
6:53 AM 63.0 °F - 59.0 °F 87% 29.89 in 10.0 mi Calm Calm - N/A   Partly Cloudy
7:53 AM 66.0 °F - 59.0 °F 78% 29.89 in 10.0 mi Calm Calm - N/A   Clear
8:53 AM 68.0 °F - 57.9 °F 70% 29.88 in 10.0 mi Calm Calm - N/A   Clear
9:53 AM 72.0 °F - 60.1 °F 66% 29.88 in 10.0 mi WNW 4.6 mph - N/A   Clear
10:53 AM 75.0 °F - 60.1 °F 60% 29.88 in 10.0 mi NW 5.8 mph - N/A   Clear
11:53 AM 80.1 °F 80.9 °F 60.1 °F 50% 29.87 in 10.0 mi Variable 4.6 mph - N/A   Clear
12:53 PM 82.0 °F 81.7 °F 57.0 °F 42% 29.85 in 10.0 mi West 6.9 mph - N/A   Clear
1:53 PM 86.0 °F 84.9 °F 57.0 °F 37% 29.83 in 10.0 mi NNW 6.9 mph - N/A   Clear
2:53 PM 88.0 °F 85.7 °F 53.1 °F 30% 29.81 in 10.0 mi NW 12.7 mph - N/A   Clear
3:53 PM 89.1 °F 88.0 °F 57.9 °F 35% 29.79 in 10.0 mi WNW 9.2 mph - N/A   Clear
4:53 PM 90.0 °F 89.1 °F 59.0 °F 35% 29.77 in 10.0 mi WNW 9.2 mph - N/A   Clear
5:53 PM 87.1 °F 86.7 °F 60.1 °F 40% 29.76 in 10.0 mi WNW 11.5 mph - N/A   Clear
6:53 PM 79.0 °F - 61.0 °F 54% 29.77 in 10.0 mi WNW 17.3 mph - N/A   Clear
7:53 PM 75.0 °F - 61.0 °F 62% 29.78 in 10.0 mi West 9.2 mph - N/A   Clear
8:53 PM 73.0 °F - 60.1 °F 64% 29.77 in 10.0 mi WNW 9.2 mph - N/A   Clear
9:53 PM 73.0 °F - 59.0 °F 61% 29.78 in 10.0 mi WNW 4.6 mph - N/A   Clear
10:53 PM 70.0 °F - 61.0 °F 73% 29.79 in 10.0 mi WNW 8.1 mph - N/A   Clear
11:53 PM 68.0 °F - 61.0 °F 78% 29.80 in 10.0 mi NW 6.9 mph - N/A   Clear